Location: Marse
(42.1502°N, 110.9866°W)
Time: 00:37:06
(UTC+00:00)

ITAMSAT 1 - Pass Details

Date: 02 July 2022
Orbit: 784 x 795 km, 98.9° (Epoch: 07 August)

Event Time Altitude Azimuth Distance (km) Brightness Sun altitude
Rises 03:49:51 0° 213° (SSW) 3,261 10.8 -7.7°
Reaches altitude 10° 03:53:18 10° 238° (WSW) 2,341 10.3 -8.1°
Maximum altitude 03:56:01 14° 270° (W) 2,060 10.6 -8.5°
Drops below altitude 10° 03:58:45 10° 302° (WNW) 2,353 11.7 -8.9°
Sets 04:02:15 0° 327° (NNW) 3,290 12.7 -9.4°
